Weather History for Wheeler AAF, HI

Change the Weather History Date:

Wednesday, November 21, 2012

  Actual Average Record
Temperature  
Mean Temperature 70 °F -  
Max Temperature 78 °F 76 °F 82 °F (2001)
Min Temperature 62 °F 65 °F 60 °F (1996)
Cooling Degree Days 5    
Growing Degree Days 20 (Base 50)    
Moisture  
Dew Point 65 °F    
Average Humidity 79    
Maximum Humidity 91    
Minimum Humidity 65    
Precipitation  
Precipitation 0.00 in - - ()
Sea Level Pressure  
Sea Level Pressure 29.93 in    
Wind  
Wind Speed 3 mph (SSE)    
Max Wind Speed 8 mph    
Max Gust Speed -    
Visibility 10 miles    
Events Rain    
Averages and records for this station are not official NWS values.
T = Trace of Precipitation, MM = Missing Value Source: NWS Daily Summary

Daily Weather History Graph

Daily Weather History Graph

Search for Another Location

Airport:

Trip Planner

Search our weather history database for the weather conditions in past years. The results will help you decide how hot, cold, wet, or windy it might be!

Date:

Astronomy

Nov. 21, 2012 Rise Set
Actual Time 6:47 AM HST 5:48 PM HST
Civil Twilight 6:23 AM HST 6:12 PM HST
Nautical Twilight 5:56 AM HST 6:39 PM HST
Astronomical Twilight 5:29 AM HST 7:06 PM HST
Moon 1:31 PM HST (11/21) 1:01 AM HST (11/21)
Length of Visible Light 11h 48m
Length of Day
11h 01m
Waxing Gibbous, 63% of the Moon is Illuminated
Nov 21
Waxing Gibbous
Nov 28
Full
Dec 6
Last Quarter
Dec 12
New
Dec 19
First Quarter

Hourly Weather History & Observations

Time (HST) Temp. Dew Point Humidity Pressure Visibility Wind Dir Wind Speed Gust Speed Precip Events Conditions
12:55 AM 64.8 °F 61.3 °F 89% 29.98 in 10.0 mi Calm Calm - N/A   Clear
1:55 AM 62.4 °F 59.9 °F 91% 29.97 in 10.0 mi West 3.5 mph - N/A   Clear
2:55 AM 65.1 °F 61.7 °F 89% 29.96 in 10.0 mi Calm Calm - N/A   Mostly Cloudy
3:55 AM 65.3 °F 61.5 °F 88% 29.93 in 10.0 mi WNW 4.6 mph - N/A   Clear
4:55 AM 63.9 °F 60.8 °F 90% 29.94 in 10.0 mi Calm Calm - N/A   Partly Cloudy
5:55 AM 63.7 °F 60.1 °F 88% 29.94 in 10.0 mi WNW 3.5 mph - N/A   Partly Cloudy
6:55 AM 63.7 °F 60.8 °F 90% 29.96 in 10.0 mi WNW 3.5 mph - N/A   Clear
7:55 AM 68.0 °F 64.4 °F 88% 29.98 in 10.0 mi WNW 3.5 mph - N/A   Clear
8:55 AM 72.0 °F 65.5 °F 80% 29.99 in 10.0 mi Calm Calm - N/A   Mostly Cloudy
9:55 AM 75.0 °F 65.5 °F 72% 29.99 in 10.0 mi Variable 4.6 mph - N/A   Partly Cloudy
10:55 AM 76.1 °F 65.7 °F 70% 29.97 in 10.0 mi East 5.8 mph - N/A   Mostly Cloudy
11:55 AM 76.3 °F 65.8 °F 70% 29.95 in 10.0 mi Calm Calm - N/A   Mostly Cloudy
12:55 PM 78.1 °F 65.5 °F 65% 29.91 in 10.0 mi North 8.1 mph - N/A   Mostly Cloudy
1:55 PM 77.2 °F 65.7 °F 67% 29.89 in 10.0 mi SW 3.5 mph - N/A   Mostly Cloudy
2:09 PM 77.0 °F 66.2 °F 69% 29.88 in 10.0 mi Variable 5.8 mph - N/A   Mostly Cloudy
2:10 PM 77.0 °F 66.2 °F 69% 29.88 in 10.0 mi South 5.8 mph - N/A Rain Light Rain
2:19 PM 77.0 °F 66.2 °F 69% 29.88 in 10.0 mi SE 5.8 mph - N/A   Overcast
2:55 PM 77.0 °F 66.2 °F 69% 29.88 in 10.0 mi SSE 6.9 mph - 0.00 in   Mostly Cloudy
3:16 PM 77.0 °F 66.2 °F 69% 29.88 in 10.0 mi SSE 8.1 mph - N/A   Mostly Cloudy
3:32 PM 77.0 °F 66.2 °F 69% 29.88 in 10.0 mi South 6.9 mph - N/A   Mostly Cloudy
3:33 PM 77.0 °F 66.2 °F 69% 29.88 in 10.0 mi South 6.9 mph - N/A   Mostly Cloudy
3:55 PM 76.5 °F 65.7 °F 69% 29.88 in 10.0 mi Variable 4.6 mph - N/A   Overcast
4:10 PM 75.2 °F 66.2 °F 73% 29.88 in 10.0 mi SSE 4.6 mph - N/A   Mostly Cloudy
4:41 PM 75.2 °F 64.4 °F 69% 29.89 in 10.0 mi Calm Calm - N/A   Mostly Cloudy
4:51 PM 75.2 °F 64.4 °F 69% 29.90 in 10.0 mi SSE 4.6 mph - N/A   Scattered Clouds
4:52 PM 75.2 °F 64.4 °F 69% 29.90 in 10.0 mi SSE 4.6 mph - N/A   Mostly Cloudy
4:55 PM 74.7 °F 64.8 °F 71% 29.90 in 10.0 mi SE 4.6 mph - N/A   Mostly Cloudy
5:02 PM 75.2 °F 64.4 °F 69% 29.90 in 10.0 mi SE 4.6 mph - N/A   Mostly Cloudy
5:52 PM 73.4 °F 64.4 °F 73% 29.92 in 10.0 mi South 4.6 mph - N/A   Mostly Cloudy
5:55 PM 73.6 °F 65.3 °F 75% 29.92 in 10.0 mi South 3.5 mph - N/A   Mostly Cloudy
6:12 PM 73.4 °F 66.2 °F 78% 29.93 in 10.0 mi Calm Calm - N/A   Mostly Cloudy
6:42 PM 73.4 °F 66.2 °F 78% 29.94 in 10.0 mi Calm Calm - N/A   Mostly Cloudy
6:51 PM 73.4 °F 66.2 °F 78% 29.94 in 10.0 mi ESE 4.6 mph - N/A   Mostly Cloudy
6:55 PM 72.3 °F 66.4 °F 82% 29.94 in 10.0 mi Calm Calm - N/A   Mostly Cloudy
6:56 PM 71.6 °F 66.2 °F 83% 29.94 in 10.0 mi Calm Calm - N/A   Mostly Cloudy
7:06 PM 71.6 °F 66.2 °F 83% 29.95 in 10.0 mi East 3.5 mph - N/A   Mostly Cloudy
7:07 PM 71.6 °F 66.2 °F 83% 29.95 in 10.0 mi East 3.5 mph - N/A   Mostly Cloudy
7:14 PM 71.6 °F 66.2 °F 83% 29.95 in 10.0 mi ENE 3.5 mph - N/A   Mostly Cloudy
7:50 PM 71.6 °F 66.2 °F 83% 29.96 in 10.0 mi Calm Calm - N/A   Partly Cloudy
7:55 PM 70.7 °F 65.7 °F 84% 29.96 in 10.0 mi Calm Calm - N/A   Partly Cloudy
8:05 PM 69.8 °F 66.2 °F 88% 29.96 in 10.0 mi ENE 3.5 mph - N/A   Mostly Cloudy
8:51 PM 69.8 °F 66.2 °F 88% 29.96 in 10.0 mi Calm Calm - N/A   Mostly Cloudy
8:55 PM 69.6 °F 65.7 °F 87% 29.96 in 10.0 mi Calm Calm - N/A   Mostly Cloudy
8:56 PM 69.8 °F 66.2 °F 88% 29.96 in 10.0 mi Calm Calm - N/A   Scattered Clouds
9:28 PM 68.0 °F 64.4 °F 88% 29.97 in 10.0 mi Calm Calm - N/A   Mostly Cloudy
9:37 PM 68.0 °F 64.4 °F 88% 29.97 in 10.0 mi Calm Calm - N/A   Overcast
9:46 PM 68.0 °F 64.4 °F 88% 29.97 in 10.0 mi Calm Calm - N/A   Mostly Cloudy
9:49 PM 68.0 °F 64.4 °F 88% 29.97 in 10.0 mi Calm Calm - N/A   Mostly Cloudy
9:55 PM 68.9 °F 65.3 °F 88% 29.96 in 10.0 mi Calm Calm - N/A   Scattered Clouds
10:55 PM 66.4 °F 63.3 °F 90% 29.96 in 10.0 mi West 3.5 mph - N/A   Clear
11:53 PM 66.2 °F 62.6 °F 88% 29.94 in 10.0 mi Calm Calm - N/A   Scattered Clouds
11:55 PM 65.8 °F 63.0 °F 90% 29.94 in 10.0 mi Calm Calm - N/A   Scattered Clouds